Starlink 6274

operational
NORAD ID: 56776 Int'l Des: 2023-078 Owner: SPXS Country: US Constellation: starlink
LEOCIRCULAR

Starlink 6274について

説明を読み込み中...

リアルタイム位置

3D地球を読み込み中...

次回通過

高度履歴

Altitude vs Time

uPlot chart will show altitude changes over time

軌道要素

1 56776U 23078K 26034.47270875 -.00002152 00000-0 -17263-3 0 9990
2 56776 69.9994 50.9111 0002957 271.8322 88.2499 14.98331455148044
Epoch: Feb 3, 2026 • Age: 11 hours

現在のステータス

高度 577.3 km
速度 7.57 km/s
衛星直下点 34.62°N, 50.81°W
打ち上げ日 May 31, 2023
運用期間 2.6 years
タイプ internet

技術仕様

分類 Payload
質量 305.00 kg
乾燥質量 290.00 kg
総質量 305.00 kg
長さ 0.20 m
直径 2.80 m
スパン 9.00 m
形状 Box + pan
製造者 SPXS
バスタイプ Starlink
フェーズステータス In Orbit
所有者/国 SPXS/US

大規模コンステレーション

Loading constellations...